• In Czech Republic
  • List of Countries
  • For 7 days
  • Water Temperature
  • Satellite Maps
  • Weather Map
  • Weather Widgets
  • user-avatar
    Login

    Hourly Weather Solden

    Today, 18 February, Sunday

    Time Temperature Precipitation Wind Pressure Humidity
    00:00 -6°C° 0.6 mm 1 mps 578 mmHg 94%
    01:00 -6°C° 0 mm 1 mps 579 mmHg 94%
    02:00 -8°C° 0.3 mm 2 mps 578 mmHg 93%
    03:00 -8°C° 0.3 mm 2 mps 578 mmHg 93%
    04:00 -9°C° 0.3 mm 2 mps 578 mmHg 92%
    05:00 -9°C° 0.1 mm 2 mps 578 mmHg 91%
    06:00 -10°C° 0.1 mm 2 mps 578 mmHg 90%
    07:00 -10°C° 0.1 mm 2 mps 578 mmHg 89%
    08:00 -9°C° 0.1 mm 2 mps 579 mmHg 86%
    09:00 -8°C° 0.1 mm 2 mps 579 mmHg 83%
    10:00 -8°C° 0.1 mm 2 mps 580 mmHg 80%
    11:00 -7°C° 0.1 mm 2 mps 580 mmHg 80%
    12:00 -6°C° 0.1 mm 2 mps 580 mmHg 79%
    13:00 -6°C° 0.1 mm 2 mps 581 mmHg 78%
    14:00 -4°C° 0.2 mm 1 mps 581 mmHg 78%
    15:00 -4°C° 0.2 mm 1 mps 581 mmHg 79%
    16:00 -4°C° 0.2 mm 1 mps 580 mmHg 80%
    17:00 -6°C° 0.1 mm 1 mps 580 mmHg 83%
    18:00 -8°C° 0.1 mm 1 mps 579 mmHg 87%
    19:00 -9°C° 0.1 mm 0 mps 579 mmHg 90%
    20:00 -9°C° 0.1 mm 0 mps 579 mmHg 90%
    21:00 -10°C° 0.1 mm 1 mps 578 mmHg 90%
    22:00 -11°C° 0.1 mm 1 mps 578 mmHg 90%
    23:00 -11°C° 0.1 mm 1 mps 578 mmHg 89%

    Tomorrow, 19 February, Monday

    Time Temperature Precipitation Wind Pressure Humidity
    00:00 -11°C° 0.1 mm 1 mps 578 mmHg 88%
    01:00 -11°C° 0.1 mm 1 mps 578 mmHg 88%
    02:00 -12°C° 0 mm 1 mps 577 mmHg 87%
    03:00 -12°C° 0 mm 1 mps 577 mmHg 87%
    04:00 -12°C° 0 mm 1 mps 576 mmHg 86%
    05:00 -12°C° 0 mm 1 mps 576 mmHg 86%
    06:00 -13°C° 0 mm 1 mps 576 mmHg 85%
    07:00 -13°C° 0 mm 1 mps 576 mmHg 85%
    08:00 -11°C° 0 mm 1 mps 577 mmHg 81%
    09:00 -9°C° 0 mm 0 mps 577 mmHg 78%
    10:00 -7°C° 0 mm 0 mps 578 mmHg 74%
    11:00 -7°C° 0 mm 0 mps 578 mmHg 74%
    12:00 -6°C° 0 mm 0 mps 578 mmHg 73%
    13:00 -4°C° 0 mm 1 mps 578 mmHg 72%
    14:00 -4°C° 0.1 mm 1 mps 578 mmHg 75%
    15:00 -4°C° 0.1 mm 1 mps 578 mmHg 77%
    16:00 -4°C° 0.1 mm 1 mps 577 mmHg 79%
    17:00 -7°C° 0.1 mm 1 mps 577 mmHg 83%
    18:00 -8°C° 0.1 mm 1 mps 576 mmHg 88%
    19:00 -9°C° 0.1 mm 1 mps 576 mmHg 92%
    20:00 -10°C° 0 mm 1 mps 575 mmHg 92%
    21:00 -11°C° 0 mm 1 mps 575 mmHg 92%
    22:00 -11°C° 0 mm 1 mps 575 mmHg 92%
    23:00 -12°C° 0 mm 1 mps 574 mmHg 90%

    Day after tomorrow, 20 February, Tuesday

    Time Temperature Precipitation Wind Pressure Humidity
    00:00 -13°C° 0 mm 1 mps 574 mmHg 89%
    01:00 -13°C° 0 mm 1 mps 573 mmHg 88%
    02:00 -14°C° 0 mm 1 mps 573 mmHg 86%
    03:00 -14°C° 0 mm 1 mps 572 mmHg 84%
    04:00 -15°C° 0 mm 1 mps 572 mmHg 83%
    05:00 -17°C° 0 mm 2 mps 572 mmHg 80%
    06:00 -17°C° 0 mm 2 mps 571 mmHg 78%
    07:00 -18°C° 0 mm 2 mps 571 mmHg 76%
    08:00 -16°C° 0 mm 2 mps 572 mmHg 71%
    09:00 -13°C° 0 mm 2 mps 573 mmHg 67%
    10:00 -10°C° 0 mm 2 mps 574 mmHg 62%
    11:00 -9°C° 0 mm 2 mps 574 mmHg 60%
    12:00 -8°C° 0 mm 2 mps 574 mmHg 58%
    13:00 -7°C° 0 mm 2 mps 574 mmHg 56%
    14:00 -7°C° 0 mm 2 mps 574 mmHg 60%
    15:00 -8°C° 0 mm 2 mps 574 mmHg 63%
    16:00 -8°C° 0 mm 2 mps 573 mmHg 67%
    17:00 -10°C° 0 mm 2 mps 573 mmHg 72%
    18:00 -13°C° 0 mm 2 mps 572 mmHg 78%
    19:00 -14°C° 0 mm 2 mps 572 mmHg 83%
    20:00 -15°C° 0 mm 2 mps 571 mmHg 84%
    21:00 -16°C° 0 mm 2 mps 571 mmHg 84%
    22:00 -17°C° 0 mm 2 mps 571 mmHg 84%
    23:00 -17°C° 0 mm 2 mps 571 mmHg 84%

    21 February, Wednesday

    Time Temperature Precipitation Wind Pressure Humidity
    00:00 -18°C° 0 mm 2 mps 571 mmHg 84%
    01:00 -18°C° 0 mm 2 mps 571 mmHg 83%
    02:00 -18°C° 0 mm 2 mps 570 mmHg 82%
    03:00 -19°C° 0 mm 2 mps 570 mmHg 82%
    04:00 -19°C° 0 mm 2 mps 570 mmHg 81%
    05:00 -19°C° 0 mm 2 mps 570 mmHg 79%
    06:00 -19°C° 0 mm 2 mps 570 mmHg 78%
    07:00 -20°C° 0 mm 2 mps 570 mmHg 77%
    08:00 -17°C° 0 mm 2 mps 571 mmHg 74%
    09:00 -15°C° 0 mm 2 mps 572 mmHg 70%
    10:00 -13°C° 0 mm 2 mps 573 mmHg 67%
    11:00 -12°C° 0 mm 2 mps 574 mmHg 66%
    12:00 -9°C° 0 mm 2 mps 574 mmHg 64%
    13:00 -8°C° 0 mm 2 mps 574 mmHg 63%
    14:00 -8°C° 0 mm 2 mps 574 mmHg 65%
    15:00 -8°C° 0 mm 2 mps 573 mmHg 68%
    16:00 -8°C° 0 mm 2 mps 573 mmHg 70%
    17:00 -10°C° 0 mm 2 mps 572 mmHg 75%
    18:00 -13°C° 0 mm 2 mps 571 mmHg 79%
    19:00 -14°C° 0 mm 2 mps 571 mmHg 84%
    20:00 -15°C° 0 mm 2 mps 571 mmHg 84%
    21:00 -15°C° 0 mm 2 mps 570 mmHg 84%
    22:00 -15°C° 0 mm 2 mps 570 mmHg 83%
    23:00 -16°C° 0 mm 2 mps 570 mmHg 83%

    22 February, Thursday

    Time Temperature Precipitation Wind Pressure Humidity
    00:00 -16°C° 0 mm 2 mps 569 mmHg 82%
    01:00 -17°C° 0 mm 2 mps 569 mmHg 81%
    02:00 -17°C° 0 mm 2 mps 568 mmHg 81%
    03:00 -17°C° 0 mm 2 mps 568 mmHg 81%
    04:00 -17°C° 0 mm 2 mps 567 mmHg 80%
    05:00 -16°C° 0 mm 2 mps 567 mmHg 80%
    06:00 -16°C° 0 mm 2 mps 568 mmHg 80%
    07:00 -16°C° 0 mm 2 mps 568 mmHg 80%
    08:00 -14°C° 0.1 mm 2 mps 568 mmHg 79%
    09:00 -13°C° 0.1 mm 2 mps 569 mmHg 77%
    10:00 -12°C° 0.1 mm 2 mps 569 mmHg 75%
    11:00 -10°C° 0.1 mm 2 mps 569 mmHg 74%
    12:00 -9°C° 0.1 mm 2 mps 570 mmHg 72%
    13:00 -7°C° 0.1 mm 1 mps 570 mmHg 71%
    14:00 -7°C° 0.1 mm 1 mps 570 mmHg 72%
    15:00 -7°C° 0.1 mm 1 mps 570 mmHg 73%
    16:00 -7°C° 0.1 mm 1 mps 569 mmHg 74%
    17:00 -8°C° 0.1 mm 1 mps 569 mmHg 77%
    18:00 -10°C° 0.1 mm 1 mps 568 mmHg 81%
    19:00 -11°C° 0.1 mm 1 mps 568 mmHg 85%
    20:00 -12°C° 0 mm 1 mps 567 mmHg 84%
    21:00 -12°C° 0 mm 1 mps 567 mmHg 84%
    22:00 -13°C° 0 mm 1 mps 567 mmHg 84%
    23:00 -13°C° 0 mm 1 mps 567 mmHg 83%

    23 February, Friday

    Time Temperature Precipitation Wind Pressure Humidity
    00:00 -13°C° 0 mm 1 mps 566 mmHg 83%
    01:00 -14°C° 0 mm 1 mps 566 mmHg 82%
    02:00 -14°C° 0 mm 1 mps 566 mmHg 82%
    03:00 -14°C° 0 mm 1 mps 566 mmHg 82%
    04:00 -14°C° 0 mm 1 mps 565 mmHg 82%
    05:00 -13°C° 0.1 mm 1 mps 565 mmHg 82%
    06:00 -13°C° 0.1 mm 1 mps 565 mmHg 82%
    07:00 -13°C° 0.1 mm 1 mps 566 mmHg 82%
    08:00 -11°C° 0.1 mm 1 mps 566 mmHg 80%
    09:00 -10°C° 0.1 mm 1 mps 567 mmHg 78%
    10:00 -9°C° 0.1 mm 1 mps 567 mmHg 76%
    11:00 -8°C° 0.1 mm 1 mps 567 mmHg 75%
    12:00 -7°C° 0.1 mm 1 mps 568 mmHg 74%
    13:00 -6°C° 0.1 mm 1 mps 568 mmHg 73%
    14:00 -6°C° 0.2 mm 1 mps 568 mmHg 75%
    15:00 -6°C° 0.2 mm 1 mps 567 mmHg 76%
    16:00 -7°C° 0.2 mm 1 mps 567 mmHg 78%
    17:00 -8°C° 0.2 mm 1 mps 567 mmHg 81%
    18:00 -9°C° 0.2 mm 1 mps 567 mmHg 85%
    19:00 -10°C° 0.2 mm 1 mps 566 mmHg 88%
    20:00 -11°C° 0.2 mm 1 mps 566 mmHg 88%
    21:00 -11°C° 0.2 mm 1 mps 566 mmHg 88%
    22:00 -12°C° 0.2 mm 1 mps 566 mmHg 88%
    23:00 -12°C° 0.1 mm 1 mps 566 mmHg 87%
    Show more